Location: Holbach
(51.5399°N, 10.6036°E)
Time: 07:07:52
(UTC+00:00)

SPOT 3 Rocket - Pass Details

Date: 18 September 2020
Orbit: 779 x 794 km, 98.8° (Epoch: 22 October)

Event Time Altitude Azimuth Distance (km) Brightness Sun altitude
Exits shadow 18:22:59 12° 118° (ESE) 2,206 5.2 -9.8°
Maximum altitude 18:27:03 31° 61° (ENE) 1,363 4.4 -10.4°
Drops below altitude 10° 18:31:30 10° 1° (N) 2,347 6.2 -11.1°
Sets 18:34:03 0° 351° (N) 3,281 7.1 -11.5°
